Location: Unspecified
(54.0933°N, 18.7813°E)
Time: 01:10:21
(UTC+02:00)

ISS - Pass Details

Date: 17 January 2013
Orbit: 418 x 420 km, 51.6° (Epoch: 15 August)

Event Time Altitude Azimuth Distance (km) Brightness Sun altitude
Exits shadow 06:57:44 - 270° (W) 1,742 -1.2 -7.9°
Reaches altitude 10° 06:58:04 10° 269° (W) 1,619 -1.3 -7.9°
Maximum altitude 07:01:21 33° 204° (SSW) 784 -2.4 -7.5°
Drops below altitude 10° 07:04:28 10° 139° (SE) 1,539 0.4 -7.0°
Sets 07:06:39 0° 129° (SE) 2,386 2.1 -6.7°
